Regional Weather Roundup
Issued by NWS

Home | Current Version | Previous Version | Graphics & Text | Print | Product List | Glossary On
Versions: 1 2 3 4 5 6 7 8 9 10 11 12 13 14 15 16 17 18 19 20 21 22 23 24 25 26 27 28 29 30 31 32 33 34 35 36 37 38 39 40 41 42 43 44 45 46 47 48 49 50
000
ASUS43 KMKX 210410
RWRWI

WISCONSIN REGIONAL WEATHER ROUNDUP
NATIONAL WEATHER SERVICE MILWAUKEE/SULLIVAN WI
1100 PM CDT FRI APR 20 2018

NOTE: "FAIR" INDICATES FEW OR NO CLOUDS BELOW 12,000 FEET WITH NO
SIGNIFICANT WEATHER AND/OR OBSTRUCTIONS TO VISIBILITY.

WIZ001-002-006>008-014>016-023>028-210500-
NORTHWEST WISCONSIN

CITY           SKY/WX    TMP DP  RH WIND       PRES   REMARKS
SUPERIOR ARPT  FAIR      41  21  45 SW7       30.41S
ASHLAND        FAIR      36  19  50 SW6       30.42R WCI  31
HAYWARD        FAIR      32  20  61 CALM      30.43R
SIREN          FAIR      32  22  65 CALM      30.44S
CUMBERLAND     FAIR      32  19  59 CALM      30.43S
RICE LAKE      FAIR      32  26  79 CALM      30.45S
CHETEK         FAIR      32  23  70 CALM      30.43F
LADYSMITH      FAIR      34  23  64 CALM      30.44S
EAU CLAIRE     FAIR      39  23  52 CALM      30.43S
MENOMONIE      FAIR      39  27  63 CALM      30.45R
NEW RICHMOND   FAIR      37  28  67 S3        30.45R
OSCEOLA        FAIR      35  27  74 CALM      30.47R
$$

WIZ003>005-009-010-017-018-210500-
NORTH CENTRAL WISCONSIN

CITY           SKY/WX    TMP DP  RH WIND       PRES   REMARKS
MANITOWISH WTR FAIR      31  20  63 CALM      30.40S
ARBOR VITAE    FAIR      35  20  54 CALM      30.41S
WOODRUFF       FAIR      35  20  54 CALM      30.41S
RHINELANDER    FAIR      38  18  44 W5        30.41R WCI  34
EAGLE RIVER    FAIR      32  19  59 CALM      30.39S
LAND O LAKES   FAIR      29  19  66 CALM      30.41S
PHILLIPS       FAIR      31  20  66 CALM      30.41S
TOMAHAWK       FAIR      30  18  60 CALM      30.41F
MEDFORD        FAIR      31  21  65 CALM      30.42R
MERRILL          N/A     30  18  60 CALM      30.43S
$$

WIZ029-030-035-036-043>047-210500-
CENTRAL WISCONSIN

CITY           SKY/WX    TMP DP  RH WIND       PRES   REMARKS
WAUSAU         FAIR      34  19  54 CALM      30.41S
MOSINEE        FAIR      37  12  35 CALM      30.43S
MARSHFIELD     FAIR      36  19  50 CALM      30.41S
STEVENS POINT  FAIR      30  18  61 CALM      30.44S
WAUPACA        FAIR      35  22  58 CALM      30.43F
WAUTOMA        FAIR      30  24  78 CALM      30.45R
WISC RAPIDS    FAIR      32  16  51 CALM      30.44S
CAMP DOUGLAS   FAIR      31  25  79 CALM      30.43S HAZE
$$

WIZ011>013-019>022-031-037>040-048>050-210500-
NORTHEAST WISCONSIN

CITY           SKY/WX    TMP DP  RH WIND       PRES   REMARKS
ANTIGO         FAIR      33  20  59 CALM      30.42S
SHAWANO        FAIR      38  21  50 CALM      30.42S
OCONTO         FAIR      31  20  63 CALM      30.43S
STURGEON BAY   FAIR      40  24  53 S7        30.44S
GREEN BAY      FAIR      35  23  61 CALM      30.44S
MANITOWOC      FAIR      34  26  72 CALM      30.45S
APPLETON       PTCLDY    41  12  30 SW5       30.42S
CLINTONVILLE   FAIR      32  20  59 CALM      30.43S
OSHKOSH        FAIR      34  22  61 S3        30.43S
$$

WIZ032>034-041-042-053>061-210500-
SOUTHWEST WISCONSIN

CITY           SKY/WX    TMP DP  RH WIND       PRES   REMARKS
LA CROSSE      FAIR      43  31  62 CALM      30.44R
SPARTA         FAIR      31  22  69 CALM      30.46R
VIROQUA        FAIR      43  26  52 NE5       30.43S
BOSCOBEL       FAIR      37  30  75 CALM      30.44R
PRAIRIE DU CHI FAIR      42  31  66 CALM      30.42F
PLATTEVILLE    FAIR      47  27  44 E6        30.42S
$$

WIZ056-057-062-063-064-067-068-210500-
SOUTH CENTRAL WISCONSIN

CITY           SKY/WX    TMP DP  RH WIND       PRES   REMARKS
REEDSBURG      FAIR      36  22  56 CALM      30.44S
BARABOO/DELLS  FAIR      35  17  49 CALM      30.43S
LONE ROCK      FAIR      37  32  82 CALM      30.44R
MINERAL POINT  FAIR      45  28  53 E6        30.42S
MADISON        FAIR      36  24  62 CALM      30.43F
MIDDLETON      FAIR      35  32  87 CALM      30.44S
WATERTOWN      FAIR      35  22  59 CALM      30.44S
MONROE         FAIR      45  27  49 NE5       30.42S
JANESVILLE     FAIR      41  30  65 CALM      30.44S
$$

WIZ051-052-058>065-066-070>072-210500-
SOUTHEAST WISCONSIN

CITY           SKY/WX    TMP DP  RH WIND       PRES   REMARKS
MILWAUKEE      FAIR      42  16  34 CALM      30.45S
WAUKESHA       FAIR      34  21  60 CALM      30.46S
MILWAUKEE/TIMM FAIR      36  23  60 CALM      30.46S
RACINE         FAIR      36  22  56 SW3       30.46S
BURLINGTON     FAIR      33  25  72 CALM      30.44F
KENOSHA        FAIR      37  19  48 CALM      30.44F
FOND DU LAC    FAIR      30  21  69 S5        30.44S WCI  25
SHEBOYGAN      FAIR      33  29  85 CALM      30.44F
WEST BEND      FAIR      32  23  69 CALM      30.44F
JUNEAU         FAIR      39  21  48 E3        30.45S
$$

LSZ147-162-210500-
LAKE SUPERIOR

STATION/POSITION TIME  TEMP    WIND        PRES    WAVE
                       AIR SEA DIR/SP/G            HT/PER
                 (UTC) (F)     (DEG/KT/KT) (MB)    (FT/S)
DEVILS ISLAND    0400   47     170/  9/ 11 1030.0R
SAXON HARBOR     0340   32     160/  1/  2 1029.1R
$$

LMZ867-665-643>646-210500-
LAKE MICHIGAN

STATION/POSITION TIME  TEMP    WIND        PRES    WAVE
                       AIR SEA DIR/SP/G            HT/PER
                 (UTC) (F)     (DEG/KT/KT) (MB)    (FT/S)
NORTHPORT PIER   0340   35                 1030.5R
KEWAUNEE LAKESHO 0348   35     270/  2/  2 1029.7F
SHEBOYGAN LAKESH 0400   42     230/  2/  2 1031.3F
PORT WASHINGTON  0330   36     260/  4/  4 1031.8S
MILWAUKEE LAKESH 0350   42     200/  1/  1   N/A
KENOSHA   LAKESH 0400   42                 1030.8
$$

TC  - TEMPERATURE IN CELSIUS
VSB - VISIBILITY IN STATUTE MILES
WCI - WIND CHILL INDEX
HX  - HEAT INDEX





USA.gov is the U.S. government's official web portal to all federal, state and local government web resources and services.